User: anonymous   Login
Location: Unspecified
(0.0000°N, 0.0000°E)
Time: 00:07:17
(UTC+00:00)
Language:

STARLINK-35404 - Orbit

View from above orbital plane
View from above orbital plane
View from above satellite
View from above satellite

Ground track
Ground track

The orbit is defined by the following mean orbital elements,

1 66336U          26145.31085742 +.00000000 +00000-0 +44738-3 0 00004
2 66336  43.0015 139.7060 0001701 279.8749  80.1911 15.27589690    02
Epoch (UTC): 25 May 2026 07:27:38
Eccentricity: 0.0001701
inclination: 43.0015°
perigee height: 482 km
apogee height: 484 km
right ascension of ascending node: 139.7060°
argument of perigee: 279.8749°
revolutions per day: 15.27589690
mean anomaly at epoch: 80.1911°

The dashed part of the orbit path shows where the satellite is in the earth's shadow,  

DLR